Torna al catalogo

FENGYUN 1C DEB

AttivoLEO
NORAD 31628·DEBRIS·🇨🇳 China

Lanciato May 10, 1999 da Taiyuan Satellite Launch Center

Loading…

Prossimi Passaggi (prossime 24 ore)

TLE

AggiornatoSource: Space-Track

Epoca: Sep 12, 2026, 18:40 UTC

1 31628U 99025CAJ 26255.77825356  .00001521  00000-0  11958-2 0  9993
2 31628 102.2657 200.4713 0166820 285.8602  72.4212 13.88032612971005

Traccia FENGYUN 1C DEB in tempo reale con AllMySat

Download on the App Store